DECAYED

STARLINK-2309, 47995 (Decayed)

Orbit data source: Space-Track

STARLINK-2309, 47995 was a payload satellite owned by SpaceX/Seattle (US) in LEO that was launched on Wed, 24 Mar 2021 UTC via an FALCON 9 launch vehicle from the Air Force Eastern Test Range (AFETR). Payload-class satellites include a variety of spacecraft equipped with specific instruments for various scientific and technological missions. These include communications satellites like Starlink; space stations such as the ISS; scientific satellites like the Hubble; Earth observation satellites from companies like Planet Labs, Umbra, and HawkEye 360; GPS; miniature CubeSats for education and research; and military/defense satellites.

Not visible in the next 10 days
Identifier
47995, 2021-024U
Orbit
Decayed
Country
Flag of USUS
Related business
Manufacturer
SpaceX/Seattle
Mission
Decayed Commercial Communications
Bus & Motor
STARLINK, Unknown motor
Mass
260 kg wet, ~248 kg dry
Launch date (UTC)
2021-03-24 (5 years ago)
Launch vehicle
FALCON 9
Launch site
Air Force Eastern Test Range (AFETR)
Object type
Payload
Rocket body
Debris
Shape & HBR
Box + 1 Pan, 10.1 m
Radar Cross Section
13.562 m², Large (>1 m²)

Expand to show TLE details & history
Last TLE update: 10 months ago

TLE from 10 months ago
0 STARLINK-2309
1 47995U 21024U   25219.84689316  .12037009  12459-4  30073-3 0  9990
2 47995  53.0228 104.6488 0010228 254.1101 105.8820 16.45181496243844
Epoch: 2025-08-07T20:19Z
TLE epoch observation values (Epoch: 2025-08-07T20:19:31.569Z)
Latitude
-0.00003°
Longitude
-156.83819°
Altitude
154.818 km
Speed
7.814 km/s
True Right ascension
06h 58m 35s
True Declination
0° 00' 00"
Sunlit
Object was in daylight at epoch
Visualization orbit readout
Latitude
Unknown
Longitude
Unknown
Altitude
Unknown
Speed
Unknown
Apparent Right ascension
Unknown
Apparent Declination
Unknown
Sunlit
N/A
Visualization observer readout
Local Sidereal Time
21:39:44
Azimuth
Unknown
Elevation
Unknown
Doppler factor
Unknown
Orbital elements
Apogee altitude
159.027 km
Perigee altitude
145.668 km
Semi-major axis
6,530.484 km
Eccentricity
0.00102
Inclination
53.0228°
RAAN
104.6488°
Arg. of periapsis
254.1101°
True anomaly
105.99469°
Mean anomaly
105.882°
Eccentric anomaly
105.93835°
Mean motion
4.11268 °/min
Orbital period
87.53 mins
BSTAR
0.00030073
Loading maneuver chart data...
Computing Atmospheric mass density...

Documentation

Showing up to 5 results
|